| time (UTC) | temp F | wind direction | speed MPH | gust MPH | rain 1hr in | rain 24hr in | rain mn in | humidity % | barometer mb |
| 20260902135008 | 71 | 86 | 0.0 | 0.0 | 0.00 | 0.00 | 0.00 | 40 | 1020.6 |
| 20260902134505 | 71 | 209 | 0.0 | 3.0 | 0.00 | 0.00 | 0.00 | 40 | 1020.6 |
| 20260902134006 | 71 | 11 | 0.0 | 3.0 | 0.00 | 0.00 | 0.00 | 37 | 1020.6 |
| 20260902133505 | 71 | 184 | 1.0 | 6.0 | 0.00 | 0.00 | 0.00 | 39 | 1020.6 |
| 20260902133004 | 70 | 269 | 2.0 | 6.0 | 0.00 | 0.00 | 0.00 | 37 | 1020.6 |
| 20260902132503 | 69 | 281 | 2.0 | 6.0 | 0.00 | 0.00 | 0.00 | 38 | 1020.6 |
| 20260902132004 | 69 | 271 | 3.0 | 8.0 | 0.00 | 0.00 | 0.00 | 39 | 1020.6 |
| 20260902131504 | 68 | 281 | 5.0 | 12.0 | 0.00 | 0.00 | 0.00 | 39 | 1020.6 |
| 20260902131003 | 68 | 304 | 5.0 | 12.0 | 0.00 | 0.00 | 0.00 | 39 | 1020.6 |
| 20260902130504 | 67 | 302 | 4.0 | 8.0 | 0.00 | 0.00 | 0.00 | 40 | 1020.6 |
| 20260902130004 | 67 | 266 | 3.0 | 6.0 | 0.00 | 0.00 | 0.00 | 39 | 1020.6 |
| 20260902125504 | 67 | 276 | 3.0 | 6.0 | 0.00 | 0.00 | 0.00 | 39 | 1020.6 |
| 20260902125003 | 66 | 295 | 4.0 | 8.0 | 0.00 | 0.00 | 0.00 | 40 | 1020.6 |
| 20260902124504 | 67 | 278 | 4.0 | 8.0 | 0.00 | 0.00 | 0.00 | 39 | 1020.6 |
| 20260902124002 | 66 | 270 | 2.0 | 6.0 | 0.00 | 0.00 | 0.00 | 40 | 1020.6 |
| 20260902123459 | 65 | 283 | 2.0 | 7.0 | 0.00 | 0.00 | 0.00 | 44 | 1020.6 |
| 20260902122958 | 65 | 287 | 2.0 | 7.0 | 0.00 | 0.00 | 0.00 | 43 | 1020.6 |
| 20260902122500 | 66 | 306 | 1.0 | 6.0 | 0.00 | 0.00 | 0.00 | 41 | 1020.6 |
| 20260902122004 | 66 | 290 | 0.0 | 5.0 | 0.00 | 0.00 | 0.00 | 41 | 1020.6 |
| 20260902122000 | 66 | 273 | 1.0 | 4.0 | 0.00 | 0.00 | 0.00 | 40 | 1020.6 |
| 20260902120958 | 65 | 278 | 1.0 | 5.0 | 0.00 | 0.00 | 0.00 | 41 | 1020.6 |
| 20260902120458 | 65 | 270 | 1.0 | 2.0 | 0.00 | 0.00 | 0.00 | 42 | 1020.6 |
| 20260902120000 | 66 | 260 | 1.0 | 3.0 | 0.00 | 0.00 | 0.00 | 41 | 1020.6 |
| 20260902115456 | 65 | 265 | 0.0 | 3.0 | 0.00 | 0.00 | 0.00 | 41 | 1020.6 |
| 20260902114953 | 65 | 275 | 0.0 | 2.0 | 0.00 | 0.00 | 0.00 | 42 | 1020.6 |
| 20260902114455 | 64 | 146 | 0.0 | 1.0 | 0.00 | 0.00 | 0.00 | 43 | 1020.6 |
| 20260902113954 | 64 | 235 | 0.0 | 0.0 | 0.00 | 0.00 | 0.00 | 47 | 1020.6 |
| 20260902113454 | 64 | 166 | 0.0 | 0.0 | 0.00 | 0.00 | 0.00 | 48 | 1020.6 |
| 20260902112954 | 65 | 115 | 0.0 | 3.0 | 0.00 | 0.00 | 0.00 | 48 | 1020.6 |
| 20260902112453 | 65 | 115 | 0.0 | 3.0 | 0.00 | 0.00 | 0.00 | 47 | 1020.6 |
| 20260902112222 | 65 | 248 | 0.0 | 0.0 | 0.00 | 0.00 | 0.00 | 45 | 1020.6 |
| 20260902111448 | 65 | 248 | 0.0 | 0.0 | 0.00 | 0.00 | 0.00 | 46 | 1020.6 |
| 20260902111218 | 65 | 248 | 0.0 | 2.0 | 0.00 | 0.00 | 0.00 | 47 | 1020.6 |
| 20260902110448 | 65 | 248 | 1.0 | 3.0 | 0.00 | 0.00 | 0.00 | 48 | 1020.6 |
| 20260902105946 | 65 | 293 | 2.0 | 5.0 | 0.00 | 0.00 | 0.00 | 47 | 1020.6 |
| 20260902105446 | 65 | 278 | 3.0 | 6.0 | 0.00 | 0.00 | 0.00 | 48 | 1020.6 |
| 20260902104948 | 65 | 281 | 3.0 | 6.0 | 0.00 | 0.00 | 0.00 | 47 | 1020.6 |
| 20260902104718 | 66 | 279 | 3.0 | 6.0 | 0.00 | 0.00 | 0.00 | 47 | 1020.6 |
| 20260902103944 | 66 | 271 | 3.0 | 6.0 | 0.00 | 0.00 | 0.00 | 46 | 1020.6 |
| 20260902103445 | 67 | 280 | 2.0 | 4.0 | 0.00 | 0.00 | 0.00 | 45 | 1020.6 |
| 20260902102945 | 67 | 276 | 2.0 | 4.0 | 0.00 | 0.00 | 0.00 | 44 | 1020.6 |
| 20260902102449 | 67 | 272 | 2.0 | 3.0 | 0.00 | 0.00 | 0.00 | 44 | 1020.6 |
| 20260902101943 | 68 | 274 | 2.0 | 3.0 | 0.00 | 0.00 | 0.00 | 44 | 1020.6 |
| 20260902101446 | 68 | 287 | 0.0 | 0.0 | 0.00 | 0.00 | 0.00 | 44 | 1020.6 |
| 20260902101441 | 68 | 283 | 1.0 | 3.0 | 0.00 | 0.00 | 0.00 | 44 | 1020.6 |
| 20260902100442 | 69 | 274 | 0.0 | 0.0 | 0.00 | 0.00 | 0.00 | 43 | 1020.6 |
| 20260902100213 | 68 | 274 | 0.0 | 0.0 | 0.00 | 0.00 | 0.00 | 43 | 1020.6 |
| 20260902095442 | 68 | 274 | 0.0 | 0.0 | 0.00 | 0.00 | 0.00 | 44 | 1020.6 |
| 20260902094942 | 68 | 255 | 0.0 | 0.0 | 0.00 | 0.00 | 0.00 | 44 | 1020.6 |
| 20260902094445 | 68 | 277 | 0.0 | 0.0 | 0.00 | 0.00 | 0.00 | 44 | 1020.6 |
| 20260902093940 | 68 | 277 | 0.0 | 0.0 | 0.00 | 0.00 | 0.00 | 45 | 1020.6 |
| 20260902093441 | 67 | 277 | 0.0 | 0.0 | 0.00 | 0.00 | 0.00 | 46 | 1020.6 |
| 20260902092940 | 67 | 275 | 0.0 | 0.0 | 0.00 | 0.00 | 0.00 | 46 | 1020.6 |
| 20260902092440 | 67 | 358 | 0.0 | 0.0 | 0.00 | 0.00 | 0.00 | 45 | 1020.6 |
| 20260902091940 | 68 | 358 | 0.0 | 3.0 | 0.00 | 0.00 | 0.00 | 45 | 1020.6 |
| 20260902091445 | 67 | 117 | 0.0 | 0.0 | 0.00 | 0.00 | 0.00 | 46 | 1020.6 |
| 20260902091440 | 67 | 358 | 0.0 | 3.0 | 0.00 | 0.00 | 0.00 | 45 | 1020.6 |
| 20260902090711 | 67 | 289 | 0.0 | 0.0 | 0.00 | 0.00 | 0.00 | 45 | 1020.6 |
| 20260902085940 | 67 | 290 | 0.0 | 0.0 | 0.00 | 0.00 | 0.00 | 44 | 1020.6 |
| 20260902085441 | 67 | 289 | 0.0 | 0.0 | 0.00 | 0.00 | 0.00 | 44 | 1020.6 |
| 20260902085211 | 67 | 290 | 0.0 | 0.0 | 0.00 | 0.00 | 0.00 | 45 | 1020.6 |
| 20260902084440 | 66 | 290 | 0.0 | 0.0 | 0.00 | 0.00 | 0.00 | 46 | 1020.6 |
| 20260902083940 | 66 | 298 | 0.0 | 3.0 | 0.00 | 0.00 | 0.00 | 46 | 1020.6 |
| 20260902083441 | 65 | 298 | 0.0 | 3.0 | 0.00 | 0.00 | 0.00 | 47 | 1020.6 |
| 20260902082942 | 65 | 290 | 0.0 | 0.0 | 0.00 | 0.00 | 0.00 | 47 | 1020.6 |
| 20260902082713 | 65 | 290 | 0.0 | 0.0 | 0.00 | 0.00 | 0.00 | 47 | 1020.6 |
| 20260902081939 | 65 | 290 | 0.0 | 0.0 | 0.00 | 0.00 | 0.00 | 47 | 1020.6 |
| 20260902081439 | 66 | 290 | 0.0 | 0.0 | 0.00 | 0.00 | 0.00 | 46 | 1020.6 |
| 20260902080941 | 67 | 290 | 0.0 | 0.0 | 0.00 | 0.00 | 0.00 | 45 | 1020.6 |
| 20260902080441 | 68 | 290 | 0.0 | 4.0 | 0.00 | 0.00 | 0.00 | 43 | 1020.6 |
| 20260902075940 | 69 | 290 | 2.0 | 6.0 | 0.00 | 0.00 | 0.00 | 42 | 1020.6 |
| 20260902075441 | 69 | 281 | 2.0 | 6.0 | 0.00 | 0.00 | 0.00 | 42 | 1020.6 |
| 20260902074941 | 67 | 293 | 1.0 | 5.0 | 0.00 | 0.00 | 0.00 | 45 | 1020.6 |
| 20260902074441 | 65 | 291 | 1.0 | 4.0 | 0.00 | 0.00 | 0.00 | 47 | 1020.6 |
| 20260902074212 | 66 | 293 | 2.0 | 5.0 | 0.00 | 0.00 | 0.00 | 46 | 1020.6 |
| 20260902073441 | 67 | 302 | 2.0 | 5.0 | 0.00 | 0.00 | 0.00 | 45 | 1020.6 |
| 20260902073212 | 66 | 278 | 2.0 | 5.0 | 0.00 | 0.00 | 0.00 | 46 | 1020.6 |
| 20260902072436 | 67 | 298 | 2.0 | 5.0 | 0.00 | 0.00 | 0.00 | 46 | 1020.6 |
| 20260902071936 | 67 | 295 | 2.0 | 4.0 | 0.00 | 0.00 | 0.00 | 46 | 1020.6 |
| 20260902071436 | 67 | 296 | 2.0 | 4.0 | 0.00 | 0.00 | 0.00 | 45 | 1020.6 |
| 20260902070938 | 68 | 324 | 3.0 | 5.0 | 0.00 | 0.00 | 0.00 | 44 | 1020.6 |
| 20260902070437 | 68 | 300 | 3.0 | 6.0 | 0.00 | 0.01 | 0.00 | 43 | 1020.6 |
| 20260902070207 | 68 | 293 | 4.0 | 9.0 | 0.00 | 0.01 | 0.00 | 43 | 1020.6 |
| 20260902065436 | 67 | 311 | 5.0 | 9.0 | 0.00 | 0.02 | 0.00 | 45 | 1020.6 |
| 20260902064944 | 67 | 295 | 5.0 | 8.0 | 0.00 | 0.03 | 0.00 | 46 | 1020.6 |
| 20260902064938 | 67 | 309 | 5.0 | 8.0 | 0.00 | 0.03 | 0.00 | 46 | 1020.6 |
| 20260902063939 | 66 | 300 | 5.0 | 8.0 | 0.00 | 0.03 | 0.00 | 47 | 1020.6 |
| 20260902063437 | 65 | 280 | 4.0 | 7.0 | 0.00 | 0.03 | 0.00 | 49 | 1020.6 |
| 20260902062937 | 66 | 294 | 3.0 | 5.0 | 0.00 | 0.03 | 0.00 | 48 | 1020.6 |
| 20260902061936 | 68 | 288 | 4.0 | 8.0 | 0.00 | 0.03 | 0.00 | 44 | 1020.6 |
| 20260902061436 | 69 | 290 | 5.0 | 8.0 | 0.00 | 0.03 | 0.00 | 43 | 1020.6 |
| 20260902061206 | 69 | 276 | 5.0 | 7.0 | 0.00 | 0.03 | 0.00 | 42 | 1020.6 |
| 20260902060435 | 68 | 280 | 4.0 | 11.0 | 0.00 | 0.03 | 0.00 | 45 | 1020.6 |
| 20260902060205 | 67 | 290 | 4.0 | 11.0 | 0.00 | 0.03 | 0.03 | 46 | 1020.6 |
| 20260902055435 | 67 | 295 | 4.0 | 8.0 | 0.00 | 0.03 | 0.03 | 46 | 1020.6 |
| 20260902054931 | 67 | 280 | 4.0 | 8.0 | 0.00 | 0.03 | 0.03 | 47 | 1020.6 |
| 20260902054433 | 67 | 274 | 4.0 | 6.0 | 0.00 | 0.03 | 0.03 | 48 | 1020.6 |
| 20260902053933 | 65 | 280 | 4.0 | 6.0 | 0.00 | 0.03 | 0.03 | 50 | 1020.6 |
| 20260902053702 | 64 | 290 | 4.0 | 7.0 | 0.00 | 0.03 | 0.03 | 53 | 1020.6 |
| 20260902052933 | 64 | 293 | 4.0 | 7.0 | 0.00 | 0.03 | 0.03 | 54 | 1020.6 |
| 20260902052703 | 65 | 297 | 4.0 | 6.0 | 0.00 | 0.03 | 0.03 | 54 | 1020.6 |
| 20260902051934 | 65 | 304 | 4.0 | 7.0 | 0.00 | 0.03 | 0.03 | 54 | 1020.6 |
| 20260902051432 | 65 | 277 | 5.0 | 7.0 | 0.00 | 0.03 | 0.03 | 54 | 1020.6 |
| 20260902050932 | 65 | 293 | 4.0 | 7.0 | 0.00 | 0.03 | 0.03 | 55 | 1020.6 |
| 20260902050705 | 65 | 300 | 4.0 | 6.0 | 0.00 | 0.03 | 0.03 | 55 | 1020.6 |
| 20260902045933 | 67 | 296 | 4.0 | 6.0 | 0.00 | 0.03 | 0.03 | 52 | 1020.6 |
| 20260902045435 | 67 | 302 | 3.0 | 6.0 | 0.00 | 0.03 | 0.03 | 50 | 1020.6 |
| 20260902044933 | 66 | 295 | 3.0 | 6.0 | 0.00 | 0.03 | 0.03 | 52 | 1020.6 |
| 20260902044432 | 66 | 297 | 3.0 | 4.0 | 0.00 | 0.03 | 0.03 | 53 | 1020.6 |
| 20260902043934 | 67 | 295 | 2.0 | 4.0 | 0.00 | 0.03 | 0.03 | 52 | 1020.6 |
| 20260902042930 | 67 | 302 | 3.0 | 5.0 | 0.00 | 0.03 | 0.03 | 53 | 1020.6 |
| 20260902042430 | 67 | 298 | 4.0 | 6.0 | 0.00 | 0.03 | 0.03 | 53 | 1020.6 |
| 20260902041930 | 68 | 295 | 4.0 | 6.0 | 0.00 | 0.03 | 0.03 | 52 | 1020.6 |
| 20260902041430 | 68 | 281 | 3.0 | 6.0 | 0.00 | 0.03 | 0.03 | 53 | 1020.6 |
| 20260902040931 | 68 | 279 | 2.0 | 5.0 | 0.00 | 0.03 | 0.03 | 54 | 1020.6 |
| 20260902040431 | 69 | 290 | 3.0 | 5.0 | 0.00 | 0.03 | 0.03 | 53 | 1020.6 |
| 20260902035932 | 69 | 310 | 4.0 | 6.0 | 0.00 | 0.03 | 0.03 | 51 | 1020.6 |
| 20260902035431 | 68 | 281 | 4.0 | 6.0 | 0.00 | 0.03 | 0.03 | 53 | 1020.6 |
| 20260902035203 | 67 | 300 | 4.0 | 6.0 | 0.00 | 0.03 | 0.03 | 60 | 1020.6 |
| 20260902034429 | 68 | 297 | 4.0 | 7.0 | 0.00 | 0.03 | 0.03 | 60 | 1020.6 |
| 20260902033931 | 69 | 310 | 5.0 | 9.0 | 0.00 | 0.03 | 0.03 | 56 | 1020.6 |
| 20260902033427 | 70 | 293 | 5.0 | 9.0 | 0.00 | 0.03 | 0.03 | 52 | 1020.6 |
| 20260902032927 | 69 | 278 | 4.0 | 7.0 | 0.00 | 0.03 | 0.03 | 50 | 1020.6 |
| 20260902032701 | 69 | 300 | 4.0 | 6.0 | 0.00 | 0.03 | 0.03 | 52 | 1020.6 |
| 20260902031929 | 70 | 290 | 3.0 | 6.0 | 0.00 | 0.03 | 0.03 | 50 | 1020.6 |
| 20260902031429 | 70 | 289 | 1.0 | 5.0 | 0.00 | 0.03 | 0.03 | 49 | 1020.6 |
| 20260902030928 | 71 | 305 | 2.0 | 5.0 | 0.00 | 0.03 | 0.03 | 47 | 1020.6 |
| 20260902030702 | 71 | 344 | 2.0 | 4.0 | 0.00 | 0.03 | 0.03 | 47 | 1020.6 |
| 20260902025927 | 72 | 315 | 2.0 | 4.0 | 0.00 | 0.03 | 0.03 | 46 | 1020.6 |
| 20260902025427 | 73 | 288 | 0.0 | 3.0 | 0.00 | 0.03 | 0.03 | 42 | 1020.6 |
| 20260902024924 | 73 | 275 | 0.0 | 0.0 | 0.00 | 0.04 | 0.03 | 40 | 1020.6 |
| 20260902024424 | 73 | 275 | 0.0 | 0.0 | 0.00 | 0.05 | 0.03 | 41 | 1020.6 |
| 20260902023922 | 72 | 275 | 0.0 | 0.0 | 0.00 | 0.06 | 0.03 | 40 | 1020.6 |
| 20260902023421 | 72 | 275 | 0.0 | 0.0 | 0.00 | 0.07 | 0.03 | 42 | 1020.6 |
| 20260902023150 | 73 | 275 | 0.0 | 0.0 | 0.00 | 0.07 | 0.03 | 42 | 1020.6 |
| 20260902022421 | 73 | 275 | 0.0 | 0.0 | 0.00 | 0.07 | 0.03 | 40 | 1020.6 |
| 20260902021916 | 74 | 275 | 0.0 | 1.0 | 0.00 | 0.08 | 0.03 | 39 | 1020.6 |
| 20260902021647 | 74 | 275 | 0.0 | 1.0 | 0.00 | 0.08 | 0.03 | 39 | 1020.6 |
| 20260902021149 | 74 | 278 | 0.0 | 0.0 | 0.00 | 0.09 | 0.03 | 39 | 1020.6 |
| 20260902020648 | 73 | 278 | 0.0 | 2.0 | 0.00 | 0.09 | 0.03 | 39 | 1020.6 |
| 20260902015918 | 73 | 278 | 1.0 | 4.0 | 0.00 | 0.09 | 0.03 | 41 | 1020.6 |
| 20260902015414 | 73 | 285 | 1.0 | 4.0 | 0.00 | 0.09 | 0.03 | 42 | 1020.6 |
| 20260902014914 | 73 | 299 | 2.0 | 9.0 | 0.00 | 0.09 | 0.03 | 40 | 1020.6 |
| 20260902014648 | 73 | 22 | 5.0 | 12.0 | 0.00 | 0.09 | 0.03 | 42 | 1020.6 |
| 20260902013915 | 73 | 311 | 5.0 | 16.0 | 0.00 | 0.09 | 0.03 | 44 | 1020.6 |
| 20260902013645 | 74 | 278 | 3.0 | 16.0 | 0.00 | 0.09 | 0.03 | 41 | 1020.6 |
| 20260902012914 | 74 | 281 | 3.0 | 5.0 | 0.00 | 0.09 | 0.03 | 40 | 1020.6 |
| 20260902012646 | 74 | 295 | 3.0 | 5.0 | 0.00 | 0.09 | 0.03 | 40 | 1020.6 |
| 20260902011914 | 74 | 294 | 2.0 | 6.0 | 0.00 | 0.09 | 0.03 | 41 | 1020.6 |
| 20260902011414 | 74 | 310 | 2.0 | 6.0 | 0.00 | 0.09 | 0.03 | 44 | 1020.6 |
| 20260902011145 | 74 | 83 | 1.0 | 5.0 | 0.00 | 0.09 | 0.03 | 40 | 1020.6 |
| 20260902010414 | 75 | 70 | 3.0 | 6.0 | 0.00 | 0.09 | 0.03 | 41 | 1020.6 |
| 20260902005919 | 76 | 77 | 1.0 | 8.0 | 0.00 | 0.09 | 0.03 | 43 | 1020.6 |
| 20260902005914 | 75 | 53 | 2.0 | 8.0 | 0.00 | 0.09 | 0.03 | 39 | 1020.6 |
| 20260902005534 | 77 | 291 | 0.0 | 3.0 | 0.00 | 0.09 | 0.03 | 35 | 1020.6 |
| 20260902004645 | 77 | 269 | 0.0 | 3.0 | 0.00 | 0.09 | 0.03 | 35 | 1020.6 |
| 20260902003913 | 77 | 12 | 0.0 | 3.0 | 0.00 | 0.09 | 0.03 | 34 | 1020.6 |
| 20260902003413 | 78 | 96 | 1.0 | 4.0 | 0.00 | 0.10 | 0.03 | 34 | 1020.6 |
| 20260902002912 | 78 | 96 | 2.0 | 9.0 | 0.00 | 0.10 | 0.03 | 34 | 1020.6 |
| 20260902002645 | 78 | 221 | 1.0 | 9.0 | 0.00 | 0.10 | 0.03 | 32 | 1020.6 |
| 20260902001911 | 79 | 96 | 0.0 | 0.0 | 0.00 | 0.10 | 0.03 | 33 | 1020.6 |
| 20260902001409 | 79 | 96 | 0.0 | 0.0 | 0.00 | 0.10 | 0.03 | 34 | 1020.6 |
| 20260902000911 | 79 | 96 | 0.0 | 0.0 | 0.00 | 0.10 | 0.03 | 33 | 1020.6 |
| 20260902000410 | 80 | 96 | 0.0 | 0.0 | 0.00 | 0.10 | 0.03 | 33 | 1020.6 |
| 20260901235910 | 80 | 96 | 0.0 | 0.0 | 0.00 | 0.10 | 0.03 | 31 | 1020.6 |
| 20260901235412 | 80 | 96 | 0.0 | 0.0 | 0.00 | 0.10 | 0.03 | 33 | 1020.6 |
| 20260901234910 | 81 | 96 | 0.0 | 1.0 | 0.00 | 0.10 | 0.03 | 32 | 1020.6 |
| 20260901234409 | 81 | 96 | 0.0 | 1.0 | 0.00 | 0.10 | 0.03 | 32 | 1020.6 |
| 20260901233909 | 81 | 96 | 0.0 | 4.0 | 0.00 | 0.10 | 0.03 | 32 | 1020.6 |
| 20260901233642 | 82 | 96 | 0.0 | 4.0 | 0.00 | 0.10 | 0.03 | 31 | 1020.6 |
| 20260901232911 | 83 | 94 | 0.0 | 2.0 | 0.00 | 0.10 | 0.03 | 31 | 1020.6 |
| 20260901232413 | 83 | 254 | 0.0 | 2.0 | 0.00 | 0.10 | 0.03 | 31 | 1020.6 |
| 20260901231911 | 83 | 142 | 0.0 | 2.0 | 0.00 | 0.10 | 0.03 | 31 | 1020.6 |
| 20260901231409 | 82 | 174 | 0.0 | 1.0 | 0.00 | 0.10 | 0.03 | 32 | 1020.6 |
| 20260901230911 | 82 | 115 | 0.0 | 0.0 | 0.00 | 0.10 | 0.03 | 31 | 1020.6 |
| 20260901230411 | 82 | 138 | 1.0 | 4.0 | 0.00 | 0.10 | 0.03 | 32 | 1020.6 |
| 20260901225911 | 81 | 137 | 1.0 | 4.0 | 0.00 | 0.10 | 0.03 | 32 | 1020.6 |
| 20260901225410 | 81 | 89 | 2.0 | 4.0 | 0.00 | 0.10 | 0.03 | 32 | 1020.6 |
| 20260901224912 | 81 | 114 | 1.0 | 4.0 | 0.00 | 0.10 | 0.03 | 31 | 1020.6 |
| 20260901224410 | 80 | 110 | 1.0 | 4.0 | 0.00 | 0.10 | 0.03 | 34 | 1020.6 |
| 20260901223911 | 80 | 72 | 2.0 | 4.0 | 0.00 | 0.10 | 0.03 | 35 | 1020.6 |
| 20260901223409 | 80 | 70 | 3.0 | 5.0 | 0.00 | 0.10 | 0.03 | 34 | 1020.6 |
| 20260901222911 | 80 | 84 | 3.0 | 5.0 | 0.00 | 0.10 | 0.03 | 34 | 1020.6 |
| 20260901222409 | 81 | 100 | 2.0 | 6.0 | 0.00 | 0.10 | 0.03 | 33 | 1020.6 |
| 20260901221912 | 81 | 75 | 1.0 | 6.0 | 0.00 | 0.10 | 0.03 | 34 | 1020.6 |
| 20260901221411 | 81 | 130 | 1.0 | 6.0 | 0.00 | 0.10 | 0.03 | 34 | 1020.6 |
| 20260901221140 | 81 | 175 | 1.0 | 3.0 | 0.00 | 0.10 | 0.03 | 33 | 1020.6 |
| 20260901220641 | 82 | 222 | 1.0 | 6.0 | 0.00 | 0.10 | 0.03 | 32 | 1020.6 |
| 20260901215911 | 82 | 107 | 1.0 | 6.0 | 0.00 | 0.10 | 0.03 | 32 | 1020.6 |
| 20260901215410 | 82 | 80 | 0.0 | 3.0 | 0.00 | 0.10 | 0.03 | 33 | 1020.6 |
| 20260901214911 | 82 | 91 | 1.0 | 4.0 | 0.00 | 0.10 | 0.03 | 33 | 1020.6 |
| 20260901214409 | 82 | 45 | 3.0 | 6.0 | 0.00 | 0.10 | 0.03 | 33 | 1020.6 |
| 20260901213910 | 81 | 348 | 4.0 | 7.0 | 0.00 | 0.10 | 0.03 | 33 | 1020.6 |
| 20260901213411 | 81 | 43 | 4.0 | 7.0 | 0.00 | 0.10 | 0.03 | 35 | 1020.6 |
| 20260901213141 | 80 | 70 | 4.0 | 8.0 | 0.00 | 0.10 | 0.03 | 37 | 1020.6 |
| 20260901212408 | 78 | 55 | 2.0 | 8.0 | 0.00 | 0.10 | 0.03 | 38 | 1020.6 |
| 20260901211910 | 79 | 108 | 1.0 | 4.0 | 0.00 | 0.10 | 0.03 | 37 | 1020.6 |
| 20260901211407 | 79 | 101 | 3.0 | 7.0 | 0.00 | 0.10 | 0.03 | 37 | 1020.6 |
| 20260901210908 | 79 | 308 | 4.0 | 7.0 | 0.00 | 0.10 | 0.03 | 36 | 1020.6 |
| 20260901210406 | 79 | 96 | 3.0 | 7.0 | 0.00 | 0.10 | 0.03 | 36 | 1020.6 |
| 20260901205905 | 79 | 100 | 2.0 | 7.0 | 0.00 | 0.10 | 0.03 | 37 | 1020.6 |
| 20260901205405 | 79 | 68 | 2.0 | 6.0 | 0.00 | 0.10 | 0.03 | 36 | 1020.6 |
| 20260901204906 | 80 | 82 | 1.0 | 6.0 | 0.00 | 0.10 | 0.03 | 36 | 1020.6 |
| 20260901204405 | 80 | 120 | 0.0 | 3.0 | 0.00 | 0.10 | 0.03 | 36 | 1020.6 |
| 20260901203906 | 80 | 75 | 0.0 | 3.0 | 0.00 | 0.10 | 0.03 | 35 | 1020.6 |
| 20260901203408 | 81 | 84 | 1.0 | 4.0 | 0.00 | 0.10 | 0.03 | 34 | 1020.6 |
| 20260901203404 | 80 | 86 | 0.0 | 4.0 | 0.00 | 0.10 | 0.03 | 36 | 1020.6 |
| 20260901202405 | 81 | 85 | 1.0 | 4.0 | 0.00 | 0.10 | 0.03 | 34 | 1020.6 |
| 20260901201904 | 82 | 120 | 2.0 | 4.0 | 0.00 | 0.10 | 0.03 | 35 | 1020.6 |
| 20260901201403 | 81 | 107 | 1.0 | 4.0 | 0.00 | 0.10 | 0.03 | 35 | 1020.6 |
| 20260901200906 | 81 | 77 | 1.0 | 8.0 | 0.00 | 0.10 | 0.03 | 35 | 1020.6 |
| 20260901200401 | 81 | 120 | 3.0 | 11.0 | 0.00 | 0.10 | 0.03 | 35 | 1020.6 |
| 20260901195902 | 82 | 118 | 3.0 | 11.0 | 0.00 | 0.10 | 0.03 | 35 | 1020.6 |
| 20260901195404 | 82 | 104 | 3.0 | 9.0 | 0.00 | 0.10 | 0.03 | 35 | 1020.6 |
| 20260901194901 | 82 | 75 | 4.0 | 11.0 | 0.00 | 0.10 | 0.03 | 36 | 1020.6 |
| 20260901194401 | 81 | 90 | 3.0 | 11.0 | 0.00 | 0.10 | 0.03 | 37 | 1020.6 |
| 20260901194132 | 82 | 116 | 2.0 | 7.0 | 0.00 | 0.10 | 0.03 | 35 | 1020.6 |
| 20260901193403 | 82 | 242 | 2.0 | 7.0 | 0.00 | 0.10 | 0.03 | 35 | 1020.6 |
| 20260901192903 | 82 | 102 | 3.0 | 5.0 | 0.00 | 0.10 | 0.03 | 35 | 1020.6 |
| 20260901192403 | 82 | 225 | 3.0 | 8.0 | 0.00 | 0.10 | 0.03 | 37 | 1020.6 |
| 20260901191901 | 80 | 85 | 4.0 | 9.0 | 0.00 | 0.10 | 0.03 | 37 | 1020.6 |
| 20260901191401 | 80 | 108 | 4.0 | 9.0 | 0.00 | 0.10 | 0.03 | 39 | 1020.6 |
| 20260901190901 | 79 | 98 | 4.0 | 9.0 | 0.00 | 0.10 | 0.03 | 38 | 1020.6 |
| 20260901190633 | 78 | 84 | 5.0 | 11.0 | 0.00 | 0.10 | 0.03 | 39 | 1020.6 |
| 20260901185902 | 78 | 125 | 5.0 | 11.0 | 0.00 | 0.10 | 0.03 | 40 | 1020.6 |
| 20260901185403 | 79 | 90 | 5.0 | 10.0 | 0.00 | 0.10 | 0.03 | 38 | 1020.6 |
| 20260901184903 | 79 | 77 | 4.0 | 10.0 | 0.00 | 0.10 | 0.03 | 39 | 1020.6 |
| 20260901184359 | 80 | 105 | 3.0 | 9.0 | 0.00 | 0.10 | 0.03 | 38 | 1020.6 |
| 20260901183901 | 80 | 146 | 3.0 | 9.0 | 0.00 | 0.10 | 0.03 | 40 | 1020.6 |
| 20260901183400 | 79 | 95 | 3.0 | 13.0 | 0.00 | 0.10 | 0.03 | 40 | 1020.6 |
| 20260901182900 | 79 | 89 | 2.0 | 13.0 | 0.00 | 0.10 | 0.03 | 41 | 1020.6 |
| 20260901182400 | 78 | 315 | 3.0 | 8.0 | 0.00 | 0.10 | 0.03 | 43 | 1020.6 |
| 20260901182130 | 78 | 89 | 3.0 | 8.0 | 0.00 | 0.10 | 0.03 | 42 | 1020.6 |
| 20260901181400 | 77 | 102 | 4.0 | 9.0 | 0.00 | 0.10 | 0.03 | 43 | 1020.6 |
| 20260901181132 | 77 | 116 | 5.0 | 13.0 | 0.00 | 0.10 | 0.03 | 41 | 1020.6 |
| 20260901180359 | 77 | 125 | 5.0 | 13.0 | 0.00 | 0.10 | 0.03 | 43 | 1020.6 |
| 20260901175900 | 78 | 122 | 5.0 | 12.0 | 0.00 | 0.10 | 0.03 | 43 | 1020.6 |
| 20260901175359 | 77 | 63 | 5.0 | 10.0 | 0.00 | 0.10 | 0.03 | 46 | 1020.6 |
| 20260901174901 | 77 | 80 | 5.0 | 10.0 | 0.00 | 0.10 | 0.03 | 46 | 1020.6 |
| 20260901174359 | 77 | 112 | 4.0 | 9.0 | 0.00 | 0.10 | 0.03 | 44 | 1020.6 |
| 20260901173858 | 77 | 122 | 6.0 | 11.0 | 0.00 | 0.10 | 0.03 | 46 | 1020.6 |
| 20260901173358 | 77 | 89 | 6.0 | 11.0 | 0.00 | 0.10 | 0.03 | 43 | 1020.6 |
| 20260901172857 | 77 | 83 | 4.0 | 10.0 | 0.00 | 0.10 | 0.03 | 44 | 1020.6 |
| 20260901172400 | 77 | 115 | 5.0 | 10.0 | 0.00 | 0.10 | 0.03 | 42 | 1020.6 |
| 20260901171857 | 77 | 120 | 5.0 | 10.0 | 0.00 | 0.10 | 0.03 | 43 | 1020.6 |
| 20260901171357 | 76 | 88 | 5.0 | 9.0 | 0.00 | 0.10 | 0.03 | 43 | 1020.6 |
| 20260901170900 | 77 | 123 | 4.0 | 9.0 | 0.00 | 0.10 | 0.03 | 45 | 1020.6 |
| 20260901170359 | 77 | 84 | 3.0 | 7.0 | 0.00 | 0.10 | 0.03 | 45 | 1020.6 |
| 20260901165858 | 76 | 98 | 2.0 | 7.0 | 0.00 | 0.10 | 0.03 | 45 | 1020.6 |
| 20260901165358 | 76 | 158 | 1.0 | 7.0 | 0.00 | 0.10 | 0.03 | 44 | 1020.6 |
| 20260901164855 | 76 | 127 | 0.0 | 3.0 | 0.00 | 0.10 | 0.03 | 46 | 1020.6 |
| 20260901164355 | 75 | 287 | 1.0 | 5.0 | 0.00 | 0.10 | 0.03 | 48 | 1020.6 |
| 20260901163856 | 74 | 243 | 3.0 | 8.0 | 0.00 | 0.10 | 0.03 | 49 | 1020.6 |
| 20260901163355 | 73 | 76 | 3.0 | 8.0 | 0.00 | 0.10 | 0.03 | 50 | 1020.6 |
| 20260901162855 | 74 | 93 | 2.0 | 7.0 | 0.00 | 0.10 | 0.03 | 50 | 1020.6 |
| 20260901162355 | 74 | 107 | 1.0 | 5.0 | 0.00 | 0.10 | 0.03 | 52 | 1020.6 |
| 20260901161855 | 74 | 50 | 0.0 | 4.0 | 0.00 | 0.10 | 0.03 | 53 | 1020.6 |
| 20260901161355 | 73 | 94 | 1.0 | 6.0 | 0.00 | 0.10 | 0.03 | 55 | 1020.6 |
| 20260901160855 | 72 | 84 | 2.0 | 6.0 | 0.00 | 0.10 | 0.03 | 57 | 1020.6 |
| 20260901160629 | 71 | 85 | 2.0 | 4.0 | 0.00 | 0.10 | 0.03 | 62 | 1020.6 |
| 20260901155854 | 71 | 72 | 1.0 | 4.0 | 0.00 | 0.10 | 0.03 | 59 | 1020.6 |
| 20260901155354 | 71 | 233 | 1.0 | 6.0 | 0.00 | 0.10 | 0.03 | 58 | 1020.6 |
| 20260901155124 | 72 | 297 | 1.0 | 6.0 | 0.00 | 0.10 | 0.03 | 49 | 1020.6 |
| 20260901154624 | 70 | 280 | 1.0 | 5.0 | 0.00 | 0.10 | 0.03 | 55 | 1020.6 |
| 20260901153852 | 68 | 264 | 0.0 | 0.0 | 0.00 | 0.10 | 0.03 | 60 | 1020.6 |
| 20260901153353 | 67 | 263 | 0.0 | 2.0 | 0.00 | 0.10 | 0.03 | 59 | 1020.6 |
| 20260901153125 | 67 | 267 | 1.0 | 3.0 | 0.00 | 0.10 | 0.03 | 65 | 1020.6 |
| 20260901152354 | 66 | 257 | 1.0 | 3.0 | 0.00 | 0.10 | 0.03 | 63 | 1020.6 |
| 20260901151853 | 65 | 275 | 0.0 | 2.0 | 0.00 | 0.10 | 0.03 | 64 | 1020.6 |
| 20260901151356 | 65 | 219 | 0.0 | 0.0 | 0.00 | 0.10 | 0.03 | 72 | 1020.6 |
| 20260901151351 | 65 | 123 | 0.0 | 2.0 | 0.00 | 0.10 | 0.03 | 69 | 1020.6 |
| 20260901150350 | 65 | 96 | 0.0 | 0.0 | 0.00 | 0.10 | 0.03 | 74 | 1020.6 |
| 20260901145849 | 65 | 96 | 0.0 | 0.0 | 0.00 | 0.10 | 0.03 | 73 | 1020.6 |
| 20260901145349 | 65 | 96 | 0.0 | 0.0 | 0.00 | 0.10 | 0.03 | 73 | 1020.6 |
| 20260901144850 | 65 | 96 | 0.0 | 0.0 | 0.00 | 0.10 | 0.03 | 71 | 1020.6 |
| 20260901144348 | 65 | 319 | 0.0 | 0.0 | 0.00 | 0.10 | 0.03 | 71 | 1020.6 |
| 20260901143849 | 64 | 299 | 1.0 | 7.0 | 0.00 | 0.10 | 0.03 | 67 | 1020.6 |
| 20260901143352 | 64 | 96 | 1.0 | 7.0 | 0.00 | 0.10 | 0.03 | 69 | 1020.6 |
| 20260901142849 | 63 | 206 | 0.0 | 0.0 | 0.00 | 0.10 | 0.03 | 74 | 1020.6 |
| 20260901142348 | 63 | 101 | 0.0 | 0.0 | 0.00 | 0.10 | 0.03 | 74 | 1020.6 |
| 20260901141847 | 62 | 113 | 0.0 | 0.0 | 0.00 | 0.10 | 0.03 | 72 | 1020.6 |
| 20260901141345 | 62 | 113 | 0.0 | 0.0 | 0.00 | 0.10 | 0.03 | 73 | 1020.6 |
| 20260901140846 | 62 | 113 | 0.0 | 0.0 | 0.00 | 0.10 | 0.03 | 72 | 1020.6 |
| 20260901140346 | 62 | 102 | 0.0 | 0.0 | 0.00 | 0.10 | 0.03 | 72 | 1020.6 |
| 20260901135847 | 62 | 102 | 0.0 | 0.0 | 0.00 | 0.10 | 0.03 | 72 | 1020.6 |
| 20260901135346 | 62 | 114 | 0.0 | 0.0 | 0.00 | 0.10 | 0.03 | 72 | 1020.6 |